Date String (YYYY-MM-DD hh:mm:ss) UTC,Instrument flags,Ambient pressure (hPa),Sample flow (lpm),Bypass flow (lpm),Sample temperature (°C),Ambient temperature (°C),ASC tube jacket temperature (°C),LED temperature (°C),Box temperature (°C),Sample RH (%),Span deviation,Mass concentration (μg/m³),Mass concentration (μg/m³),Mass concentration (μg/m³)
DateTimeUTC,F1_M11,P_M11,Q1_M11,Q2_M11,T1_M11,T2_M11,T3_M11,T4_M11,T5_M11,U1_M11,ZSPAN_M11,X2_M11,X0_M11,X1_M11
2022-04-06 07:00:00,,0824.3,4.99,0.00,22.0,22.0,00.0,31.0,23.8,05.7,0000.0,0001.70,0006.83,0000.76
2022-04-06 07:01:00,,0824.4,5.01,0.00,22.1,22.9,00.0,31.1,24.2,05.6,0000.0,0001.70,0006.42,0000.75
2022-04-06 07:02:00,,0824.4,5.01,0.00,22.3,23.2,00.0,31.1,24.3,05.6,0000.0,0001.74,0006.60,0000.76
2022-04-06 07:03:00,,0824.4,4.99,0.00,22.3,22.8,00.0,31.1,24.2,05.6,0000.0,0001.74,0006.86,0000.75
2022-04-06 07:04:00,,0824.4,4.99,0.00,22.3,22.5,00.0,31.1,24.1,05.7,0000.0,0001.73,0007.03,0000.76
2022-04-06 07:05:00,,0824.3,5.01,0.00,22.2,22.2,00.0,31.2,24.0,05.6,0000.0,0001.76,0006.86,0000.76
2022-04-06 07:06:00,,0824.3,5.01,0.00,22.2,21.9,00.0,31.1,23.9,05.6,0000.0,0001.79,0008.65,0000.77
2022-04-06 07:07:00,,0824.3,5.00,0.00,22.2,21.6,00.0,31.1,23.8,05.6,0000.0,0001.77,0008.86,0000.76
2022-04-06 07:08:00,,0824.2,5.00,0.00,22.1,21.3,00.0,31.1,23.8,05.7,0000.0,0001.75,0009.50,0000.76
2022-04-06 07:09:00,,0824.3,5.00,0.00,22.1,21.2,00.0,31.1,23.7,05.7,0000.0,0001.72,0009.71,0000.77
2022-04-06 07:10:00,,0824.4,5.01,0.00,22.0,21.0,00.0,31.1,23.6,05.6,0000.0,0001.71,0009.71,0000.78
2022-04-06 07:11:00,,0824.4,4.99,0.00,22.0,20.9,00.0,31.1,23.5,05.6,0000.0,0001.69,0009.71,0000.78
2022-04-06 07:12:00,,0824.4,5.00,0.00,21.9,20.8,00.0,31.1,23.5,05.8,0000.0,0001.72,0010.58,0000.79
2022-04-06 07:13:00,,0824.3,5.00,0.00,21.9,20.7,00.0,31.0,23.4,05.9,0000.0,0001.74,0010.99,0000.80
2022-04-06 07:14:00,,0824.4,5.01,0.00,21.8,20.6,00.0,31.0,23.3,06.0,0000.0,0001.77,0010.87,0000.81
2022-04-06 07:15:00,,0824.4,5.01,0.00,21.8,20.5,00.0,31.0,23.3,06.0,0000.0,0001.79,0010.80,0000.82
2022-04-06 07:16:00,,0824.5,4.99,0.00,21.8,20.9,00.0,31.0,23.4,06.0,0000.0,0001.79,0010.72,0000.83
2022-04-06 07:17:00,,0824.4,5.00,0.00,21.9,21.9,00.0,31.0,23.7,06.0,0000.0,0001.77,0009.16,0000.83
2022-04-06 07:18:00,,0824.5,5.01,0.00,22.1,22.8,00.0,31.1,24.0,05.9,0000.0,0001.78,0008.74,0000.84
2022-04-06 07:19:00,,0824.5,4.99,0.00,22.2,23.5,00.0,31.1,24.3,05.7,0000.0,0001.77,0007.95,0000.85
2022-04-06 07:20:00,,0824.5,5.01,0.00,22.3,23.3,00.0,31.1,24.3,05.7,0000.0,0001.81,0007.51,0000.85
2022-04-06 07:21:00,,0824.5,5.00,0.00,22.3,22.9,00.0,31.1,24.1,05.8,0000.0,0001.82,0007.44,0000.85
2022-04-06 07:22:00,,0824.4,5.00,0.00,22.2,22.5,00.0,31.2,24.0,05.8,0000.0,0001.81,0006.83,0000.85
2022-04-06 07:23:00,,0824.6,5.00,0.00,22.2,22.1,00.0,31.2,23.9,05.8,0000.0,0001.81,0004.49,0000.87
2022-04-06 07:24:00,,0824.6,5.00,0.00,22.2,21.8,00.0,31.1,23.8,05.8,0000.0,0001.80,0003.57,0000.87
2022-04-06 07:25:00,,0824.6,5.00,0.00,22.1,21.6,00.0,31.1,23.8,05.8,0000.0,0001.79,0003.63,0000.86
2022-04-06 07:26:00,,0824.5,5.01,0.00,22.1,21.4,00.0,31.1,23.7,05.8,0000.0,0001.85,0004.12,0000.85
2022-04-06 07:27:00,,0824.6,5.00,0.00,22.0,21.2,00.0,31.1,23.6,05.8,0000.0,0001.84,0004.91,0000.84
2022-04-06 07:28:00,,0824.6,5.00,0.00,22.0,21.0,00.0,31.1,23.5,05.8,0000.0,0001.86,0005.66,0000.84
2022-04-06 07:29:00,,0824.6,5.00,0.00,21.9,20.9,00.0,31.1,23.4,05.8,0000.0,0001.89,0005.83,0000.84
2022-04-06 07:30:00,,0824.7,4.99,0.00,21.9,20.9,00.0,31.1,23.4,05.9,0000.0,0001.93,0006.12,0000.84
2022-04-06 07:31:00,,0824.6,4.99,0.00,21.9,20.8,00.0,31.0,23.4,05.9,0000.0,0001.89,0006.24,0000.84
2022-04-06 07:32:00,,0824.6,4.99,0.00,21.8,20.8,00.0,31.0,23.3,05.9,0000.0,0001.86,0006.22,0000.83
2022-04-06 07:33:00,,0824.6,5.00,0.00,21.8,20.7,00.0,31.0,23.4,05.9,0000.0,0001.84,0006.30,0000.81
2022-04-06 07:34:00,,0824.6,5.01,0.00,21.8,20.7,00.0,31.0,23.4,05.9,0000.0,0001.79,0007.09,0000.80
2022-04-06 07:35:00,,0824.6,4.99,0.00,21.8,21.0,00.0,31.0,23.4,05.9,0000.0,0001.77,0007.41,0000.78
2022-04-06 07:36:00,,0824.6,5.02,0.00,21.9,21.9,00.0,31.0,23.8,05.8,0000.0,0001.74,0007.40,0000.78
2022-04-06 07:37:00,,0824.7,5.00,0.00,22.1,22.8,00.0,31.1,24.1,05.5,0000.0,0001.74,0007.34,0000.78
2022-04-06 07:38:00,,0824.7,4.99,0.00,22.2,23.3,00.0,31.1,24.3,05.6,0000.0,0001.69,0007.36,0000.78
2022-04-06 07:39:00,,0824.7,5.00,0.00,22.3,23.0,00.0,31.1,24.2,05.6,0000.0,0001.63,0007.29,0000.77
2022-04-06 07:40:00,,0824.7,4.99,0.00,22.3,22.6,00.0,31.1,24.1,05.6,0000.0,0001.60,0007.26,0000.76
2022-04-06 07:41:00,,0824.7,5.01,0.00,22.2,22.3,00.0,31.2,24.0,05.7,0000.0,0001.58,0007.08,0000.75
2022-04-06 07:42:00,,0824.6,4.99,0.00,22.2,22.0,00.0,31.2,23.9,05.7,0000.0,0001.65,0007.08,0000.76
2022-04-06 07:43:00,,0824.7,5.01,0.00,22.2,21.7,00.0,31.1,23.8,05.7,0000.0,0001.71,0007.56,0000.77
2022-04-06 07:44:00,,0824.7,5.01,0.00,22.1,21.5,00.0,31.1,23.7,05.7,0000.0,0001.75,0007.65,0000.78
2022-04-06 07:45:00,,0824.7,5.00,0.00,22.1,21.3,00.0,31.1,23.7,05.7,0000.0,0001.80,0007.32,0000.78
2022-04-06 07:46:00,,0824.6,4.99,0.00,22.1,21.3,00.0,31.1,23.7,05.7,0000.0,0001.84,0007.43,0000.79
2022-04-06 07:47:00,,0824.7,5.00,0.00,22.0,21.1,00.0,31.1,23.6,05.7,0000.0,0001.86,0007.48,0000.79
2022-04-06 07:48:00,,0824.7,5.01,0.00,22.0,21.0,00.0,31.1,23.6,05.6,0000.0,0001.86,0007.33,0000.78
2022-04-06 07:49:00,,0824.7,4.98,0.00,22.0,20.9,00.0,31.1,23.5,05.6,0000.0,0001.84,0006.31,0000.79
2022-04-06 07:50:00,,0824.8,4.99,0.00,22.0,20.9,00.0,31.1,23.5,05.6,0000.0,0001.87,0005.68,0000.80
2022-04-06 07:51:00,,0824.7,5.01,0.00,21.9,20.8,00.0,31.1,23.5,05.6,0000.0,0001.90,0005.73,0000.82
2022-04-06 07:52:00,,0824.7,5.00,0.00,21.9,20.8,00.0,31.1,23.5,05.6,0000.0,0001.93,0005.76,0000.82
2022-04-06 07:53:00,,0824.6,5.00,0.00,21.9,20.7,00.0,31.0,23.4,05.6,0000.0,0001.87,0005.54,0000.82
2022-04-06 07:54:00,,0824.6,5.00,0.00,21.9,20.7,00.0,31.0,23.4,05.7,0000.0,0001.89,0005.25,0000.83
2022-04-06 07:55:00,,0824.6,5.00,0.00,21.8,20.7,00.0,31.0,23.4,05.7,0000.0,0001.83,0005.15,0000.83
2022-04-06 07:56:00,,0824.7,5.00,0.00,21.9,21.2,00.0,31.0,23.6,05.7,0000.0,0001.77,0005.38,0000.82
2022-04-06 07:57:00,,0824.7,5.00,0.00,22.0,22.2,00.0,31.1,23.9,05.6,0000.0,0001.76,0007.05,0000.81
2022-04-06 07:58:00,,0824.8,5.00,0.00,22.2,23.1,00.0,31.1,24.2,05.5,0000.0,0001.74,0006.87,0000.81
2022-04-06 07:59:00,,0824.7,5.00,0.00,22.3,23.5,00.0,31.1,24.4,05.5,0000.0,0001.65,0006.59,0000.82
